Location: Ermatingen
(47.6706°N, 9.0857°E)
Time: 14:54:53
(UTC+00:00)

Cosmos 2279 Rocket - Pass Details

Date: 18 September 2020
Orbit: 964 x 979 km, 82.9° (Epoch: 23 October)

Event Time Altitude Azimuth Distance (km) Brightness Sun altitude
Exits shadow 20:20:49 65° 75° (ENE) 1,069 3.9 -27.7°
Drops below altitude 10° 20:26:43 10° 14° (NNE) 2,742 6.6 -28.4°
Sets 20:29:15 0° 12° (NNE) 3,694 7.4 -28.8°
